[[{"header":{"parameterUnit":"m.s-1","parameterCategory":1,"la1":30.2991,"la2":30.254,"lo1":-89.0895,"lo2":-89.0444,"dy":0.0017,"dx":0.0017,"nx":28,"ny":28,"refTime":"2023-10-07T03:00:00:Z","depth":0,"parameterNumber":2,"parameterNumberName":"U-component_of_WINDS"},"data":[0,0,0,0,0,0,0,0,0,0,0,0,0,0,0,0,0,0,0,0,0,0,0,0,0,0,0,0,0,0,0,0,0,0,0,0,0,0,0,0,0,0,0,0,0,0,0,0,0,0,0,0,0,0,0,0,0,0,-3.0033,-3.0034,0,-3.0052,-3.0052,-3.0052,-2.9925,-2.9922,-2.9918,-2.9915,-2.9935,-2.9938,-2.9942,0,0,0,0,0,0,0,0,0,0,0,0,0,-2.9888,-2.9892,-3.0033,-3.0034,-3.0034,-3.0052,-3.0052,-3.0052,-2.9926,-2.9921,-2.9917,-2.9913,-2.9933,-2.9938,-2.9943,0,0,0,0,0,0,0,0,0,0,0,0,0,-2.9934,-2.9893,-3.0033,-2.9973,-2.9968,-3.0052,-3.0052,-3.0052,-2.9927,-2.9921,-2.9916,-2.9911,-2.9932,-2.9938,-2.9943,-3.0087,0,0,-2.9961,-2.9964,0,0,0,0,0,0,0,0,-2.9931,-2.9939,-2.9982,-2.9977,-2.9971,-2.9981,-3.0008,-3.0064,-2.9928,-2.9942,-2.9915,-2.9908,-2.9954,-2.9958,-2.9973,-3.0088,-3.0089,-2.9962,-2.9965,-2.9968,-2.9969,0,0,0,0,0,0,0,-2.9928,-2.9938,-3.0041,-2.9982,-2.9976,-2.9945,-2.9945,-3.0018,-2.9978,-2.9941,-2.9931,-2.9935,-2.9951,-2.9968,-2.9973,-3.0089,-2.9961,-2.9967,-2.997,-2.9972,-3.0321,-3.0327,0,0,0,0,0,0,-2.9933,-2.9936,-3.004,-3.0041,-2.9938,-2.9952,-2.9952,-2.9983,-2.9977,-2.9971,-2.994,-2.9929,-2.9961,-2.9966,-2.9973,-3.0141,-2.9968,-2.9973,-2.9976,-3.0316,-3.0323,-3.0329,0,0,0,0,0,0,-2.993,-2.9944,-3.0039,-2.9986,-2.9996,-2.996,-2.9996,-2.9986,-3.0004,-2.9977,-2.9969,-2.9965,-2.9957,-2.9965,-3.0059,-3.014,-2.9976,-2.9981,-3.0309,-3.0318,-3.0326,-3.0479,0,0,0,0,0,0,-2.9927,-2.9943,-2.9998,-2.9988,-2.9999,-3.0126,-3.0001,-2.9991,-3.0014,-3.0,-2.9998,-2.9993,-2.9953,-3.0051,-3.0065,-3.0145,-2.9985,-3.0301,-3.0313,-3.0323,-3.0466,-3.0491,-3.0513,0,0,0,0,0,-2.9922,-3.0041,-3.0001,-3.0015,-3.0067,-3.0131,-3.0137,-3.0089,-3.0021,-3.0075,-3.0058,-2.9993,-3.0128,-3.0062,-3.0076,-3.016,-3.0296,-3.031,-3.0322,-3.0456,-3.0486,-3.0512,0,0,0,0,0,0,-3.0062,-3.0038,-2.9995,-3.0113,-3.0125,-3.0109,-3.0177,-3.0123,-3.0155,-3.0141,-3.0079,-3.008,-3.0185,-3.0181,-3.0107,-3.0298,-3.02,-3.0217,-3.0297,-3.0326,-3.0349,-3.0349,-2.999,0,0,0,0,0,-3.0106,-3.016,-3.0137,-3.0244,-3.0252,-3.0214,-3.024,-3.0201,-3.0211,-3.0216,-3.0205,-3.0217,-3.0262,-3.0293,-3.0333,-3.0464,-3.0462,-3.0528,-3.0551,-3.0571,-3.0586,-3.0655,-3.0685,-3.0372,-3.0371,-3.0371,0,0,-3.0199,-3.0193,-3.0231,-3.0272,-3.0276,-3.0334,-3.0219,-3.0285,-3.0327,-3.0225,-3.0314,-3.0307,-3.0316,-3.0429,-3.0479,-3.0429,-3.0672,-3.0587,-3.0603,-3.0608,-3.0672,-3.0702,-3.0728,-3.038,-3.0379,-3.0377,0,0,-3.0398,-3.0398,-3.0488,-3.0494,-3.0502,-3.0475,-3.0497,-3.0489,-3.048,-3.0568,-3.0493,-3.0542,-3.0621,-3.0631,-3.0646,-3.0847,-3.0788,-3.0861,-3.0984,-3.1052,-3.1077,-3.1099,-3.1171,-3.1198,-3.0876,-3.0877,-3.0877,0,-3.0513,-3.0596,-3.054,-3.0611,-3.0632,-3.0541,-3.0631,-3.064,-3.0661,-3.0677,-3.0621,-3.0718,-3.0718,-3.0833,-3.0881,-3.0896,-3.0919,-3.0862,-3.1078,-3.1099,-3.1118,-3.1187,-3.1214,-3.0886,-3.0885,-3.0884,-3.0883,0,-3.0737,-3.0796,-3.0867,-3.089,-3.0917,-3.0998,-3.0954,-3.0989,-3.0947,-3.0927,-3.1017,-3.1013,-3.1051,-3.1074,-3.1035,-3.1183,-3.1153,-3.1088,-3.099,-3.1158,-3.1222,-3.1247,-3.0898,-3.0895,-3.0892,-3.089,0,0,-3.1028,-3.1016,-3.1044,-3.1052,-3.1053,-3.1098,-3.1173,-3.121,-3.1241,-3.1258,-3.132,-3.1388,-3.1328,-3.1346,-3.1306,-3.1366,-3.1526,-3.1293,-3.1293,-3.1338,-3.169,-3.1741,-3.1772,-3.1486,-3.1491,-3.1494,-3.169,0,-3.1223,-3.1352,-3.1303,-3.1436,-3.149,-3.1404,-3.1469,-3.1477,-3.1459,-3.1502,-3.1482,-3.1532,-3.1448,-3.1458,-3.1513,-3.1495,-3.1596,-3.148,-3.1545,-3.1548,-3.1548,-3.1805,-3.1858,-3.2043,-3.1714,-3.1718,-3.1721,0,-3.1469,-3.1496,-3.1634,-3.1625,-3.1645,-3.1706,-3.1735,-3.1776,-3.1783,-3.1766,-3.1785,-3.1732,-3.1805,-3.1705,-3.1805,-3.1727,-3.175,-3.1745,-3.1751,-3.1757,-3.1647,-3.182,-3.2101,-3.213,-3.176,-3.1757,-3.1754,0,-3.1669,-3.1739,-3.183,-3.184,-3.1832,-3.1876,-3.1874,-3.1875,-3.19,-3.1925,-3.194,-3.1974,-3.1993,-3.202,-3.1977,-3.1907,-3.2084,-3.198,-3.2072,-3.2074,-3.2116,-3.2114,-3.2407,-3.2127,-3.2127,-3.2126,-3.2126,0,-3.1894,-3.1983,-3.192,-3.1977,-3.2073,-3.2015,-3.2112,-3.21,-3.2102,-3.2155,-3.2081,-3.2133,-3.2072,-3.2117,-3.2084,-3.2173,-3.2181,-3.217,-3.216,-3.2178,-3.218,-3.2194,-3.2181,-3.2134,-3.2132,-3.2131,-3.2129,0,-3.2135,-3.2097,-3.2191,-3.2174,-3.2172,-3.2244,-3.223,-3.2281,-3.2257,-3.2325,-3.2338,-3.23,-3.235,-3.2309,-3.2357,-3.2334,-3.2453,-3.2424,-3.2451,-3.2444,-3.2539,-3.2532,-3.2853,-3.2893,-3.2586,-3.2589,-3.2592,0,-3.2283,-3.2349,-3.2338,-3.2368,-3.2371,-3.2421,-3.2445,-3.2389,-3.2418,-3.243,-3.248,-3.2523,-3.2555,-3.2638,-3.2615,-3.2652,-3.2624,-3.2734,-3.2629,-3.2645,-3.2628,-3.2626,-3.2632,-3.2756,-3.276,-3.2763,-3.2765,0,-3.2549,-3.2526,-3.2564,-3.2596,-3.2627,-3.2649,-3.2665,-3.2694,-3.2637,-3.2672,-3.2722,-3.2746,-3.2795,-3.2839,-3.2867,-3.2865,-3.2807,-3.2798,-3.2822,-3.2842,-3.2855,-3.2851,-3.2511,-3.2792,-3.2789,-3.2787,-3.2786,-3.2785,-3.2749,-3.2803,-3.2804,-3.2849,-3.2855,-3.2872,-3.2919,-3.29,-3.294,-3.2976,-3.294,-3.3,-3.3003,-3.3035,-3.304,-3.3087,-3.3041,-3.3075,-3.3084,-3.3094,-3.3109,-3.2846,-3.3091,-3.3091,-3.309,-3.3089,-3.3089,0,-3.3012,-3.3008,-3.305,-3.3074,-3.3109,-3.3049,-3.3063,-3.3097,-3.3151,-3.3159,-3.3191,-3.3248,-3.3289,-3.3269,-3.3305,-3.3347,-3.3321,-3.3358,-3.3356,-3.3356,-3.3146,-3.3123,-3.3379,-3.3378,-3.3378,-3.3378,-3.3378,-3.3378,-3.3154,-3.3243,-3.322,-3.3311,-3.3306,-3.3365,-3.3378,-3.3393,-3.3399,-3.3465,-3.3499,-3.3485,-3.3482,-3.3517,-3.3553,-3.3545,-3.3563,-3.3611,-3.3595,-3.34,-3.3371,-3.3344,-3.3322,-3.3615,-3.3615,-3.3801,-3.3803,-3.3804]},{"header":{"parameterUnit":"m.s-1","parameterCategory":1,"la1":30.2991,"la2":30.254,"lo1":-89.0895,"lo2":-89.0444,"dy":0.0017,"dx":0.0017,"nx":28,"ny":28,"refTime":"2023-10-07T03:00:00:Z","depth":0,"parameterNumber":3,"parameterNumberName":"V-component_of_WINDS"},"data":[0,0,0,0,0,0,0,0,0,0,0,0,0,0,0,0,0,0,0,0,0,0,0,0,0,0,0,0,0,0,0,0,0,0,0,0,0,0,0,0,0,0,0,0,0,0,0,0,0,0,0,0,0,0,0,0,0,0,-6.7124,-6.7125,0,-6.7203,-6.7204,-6.7205,-6.7089,-6.7085,-6.7081,-6.7077,-6.7152,-6.7157,-6.7163,0,0,0,0,0,0,0,0,0,0,0,0,0,-6.6866,-6.6872,-6.7124,-6.7125,-6.7126,-6.7203,-6.7204,-6.7205,-6.709,-6.7085,-6.708,-6.7075,-6.715,-6.7157,-6.7164,0,0,0,0,0,0,0,0,0,0,0,0,0,-6.6965,-6.6874,-6.7124,-6.7078,-6.7075,-6.7203,-6.7204,-6.7205,-6.7091,-6.7085,-6.7079,-6.7073,-6.7148,-6.7156,-6.7165,-6.7339,0,0,-6.7191,-6.7195,0,0,0,0,0,0,0,0,-6.696,-6.6975,-6.7084,-6.7082,-6.7078,-6.713,-6.714,-6.725,-6.7092,-6.7085,-6.7077,-6.707,-6.7149,-6.7157,-6.7185,-6.7343,-6.7346,-6.7192,-6.7197,-6.7201,-6.7203,0,0,0,0,0,0,0,-6.6953,-6.6971,-6.7155,-6.7086,-6.7082,-6.7051,-6.7058,-6.7161,-6.715,-6.7085,-6.7077,-6.7088,-6.7146,-6.7177,-6.7186,-6.7347,-6.7191,-6.7199,-6.7204,-6.7208,-6.7649,-6.7655,0,0,0,0,0,0,-6.6953,-6.6966,-6.7153,-6.7158,-6.7003,-6.7061,-6.7069,-6.7119,-6.7148,-6.7147,-6.7093,-6.7082,-6.7165,-6.7176,-6.7188,-6.7393,-6.7201,-6.7209,-6.7214,-6.7643,-6.7651,-6.7658,0,0,0,0,0,0,-6.6948,-6.697,-6.7149,-6.706,-6.708,-6.7072,-6.7129,-6.7124,-6.7155,-6.7155,-6.7151,-6.7127,-6.7161,-6.7176,-6.7302,-6.7394,-6.7213,-6.722,-6.7635,-6.7645,-6.7654,-6.7806,0,0,0,0,0,0,-6.6941,-6.6969,-6.7038,-6.7062,-6.7085,-6.7265,-6.7135,-6.713,-6.7171,-6.7158,-6.7186,-6.7184,-6.7157,-6.729,-6.7311,-6.7403,-6.7227,-6.7627,-6.764,-6.7651,-6.7793,-6.782,-6.7843,0,0,0,0,0,-6.6932,-6.7076,-6.7042,-6.7065,-6.7171,-6.7271,-6.7284,-6.7252,-6.7179,-6.7246,-6.7245,-6.7183,-6.7381,-6.7304,-6.7327,-6.7422,-6.7621,-6.7636,-6.765,-6.7781,-6.7814,-6.7842,0,0,0,0,0,0,-6.7061,-6.7079,-6.7041,-6.7198,-6.7234,-6.7251,-6.7335,-6.7288,-6.7344,-6.7329,-6.7284,-6.7291,-6.7427,-6.7437,-6.7351,-6.7592,-6.7488,-6.7508,-6.758,-6.7612,-6.7636,-6.7631,-6.7234,0,0,0,0,0,-6.7108,-6.7191,-6.72,-6.7338,-6.7358,-6.7344,-6.7386,-6.7358,-6.7393,-6.7407,-6.7416,-6.745,-6.7519,-6.7566,-6.763,-6.7793,-6.7796,-6.787,-6.7895,-6.7916,-6.7933,-6.8018,-6.8051,-6.7706,-6.7706,-6.7706,0,0,-6.7206,-6.7226,-6.728,-6.7364,-6.7389,-6.7472,-6.7357,-6.7451,-6.7512,-6.742,-6.7541,-6.7548,-6.7583,-6.7729,-6.7793,-6.7741,-6.8029,-6.7935,-6.7951,-6.7957,-6.8037,-6.8069,-6.8098,-6.7716,-6.7714,-6.7713,0,0,-6.7426,-6.7451,-6.7567,-6.7594,-6.7634,-6.7623,-6.7651,-6.7676,-6.7678,-6.7798,-6.7731,-6.7801,-6.7922,-6.7949,-6.7979,-6.8208,-6.8153,-6.823,-6.8361,-6.8445,-6.8472,-6.8496,-6.8576,-6.8605,-6.8248,-6.8248,-6.8248,0,-6.7542,-6.7668,-6.7632,-6.7731,-6.7769,-6.7692,-6.7808,-6.7835,-6.7893,-6.7919,-6.7861,-6.8011,-6.8029,-6.8179,-6.8235,-6.8262,-6.829,-6.8227,-6.8471,-6.8495,-6.8516,-6.8592,-6.8623,-6.8257,-6.8256,-6.8255,-6.8254,0,-6.7807,-6.7895,-6.7984,-6.8043,-6.8091,-6.8198,-6.8176,-6.8228,-6.8196,-6.8191,-6.8313,-6.8332,-6.8398,-6.8431,-6.84,-6.8576,-6.8542,-6.8479,-6.8374,-6.8559,-6.8629,-6.8658,-6.827,-6.8267,-6.8264,-6.8262,0,0,-6.8112,-6.815,-6.8183,-6.8208,-6.8246,-6.8311,-6.8413,-6.8479,-6.8524,-6.8566,-6.8649,-6.8753,-6.8693,-6.8727,-6.8698,-6.8771,-6.895,-6.8698,-6.8698,-6.8743,-6.9143,-6.919,-6.9225,-6.8913,-6.8919,-6.8923,-6.914,0,-6.8331,-6.851,-6.848,-6.8652,-6.8731,-6.8658,-6.8746,-6.8778,-6.8775,-6.884,-6.8835,-6.8909,-6.8826,-6.8846,-6.8916,-6.8914,-6.9029,-6.8897,-6.8988,-6.8991,-6.8981,-6.9262,-6.9313,-6.9516,-6.9167,-6.9172,-6.9175,0,-6.861,-6.8664,-6.8845,-6.8868,-6.89,-6.8981,-6.9038,-6.9102,-6.9134,-6.9126,-6.9165,-6.9121,-6.922,-6.9114,-6.9248,-6.9159,-6.9194,-6.9198,-6.9205,-6.9212,-6.9094,-6.9275,-6.9581,-6.9611,-6.9218,-6.9215,-6.9212,0,-6.8813,-6.893,-6.9053,-6.9077,-6.9108,-6.9166,-6.9181,-6.9207,-6.9248,-6.9297,-6.9323,-6.9383,-6.9415,-6.9461,-6.9433,-6.9359,-6.9572,-6.9464,-6.9566,-6.9567,-6.9614,-6.9611,-6.9929,-6.9639,-6.9638,-6.9637,-6.9637,0,-6.906,-6.9173,-6.9145,-6.922,-6.9344,-6.9307,-6.9429,-6.9435,-6.9459,-6.9533,-6.9472,-6.9542,-6.9502,-6.9568,-6.9547,-6.966,-6.9675,-6.967,-6.9663,-6.9676,-6.9676,-6.9697,-6.9682,-6.9646,-6.9644,-6.9642,-6.9641,0,-6.9307,-6.9293,-6.9422,-6.9441,-6.9448,-6.9538,-6.9552,-6.9621,-6.9614,-6.9707,-6.9727,-6.9714,-6.9789,-6.9766,-6.9846,-6.9831,-6.9975,-6.995,-6.9965,-6.9958,-7.0061,-7.0052,-7.0403,-7.0446,-7.0129,-7.0132,-7.0135,0,-6.9466,-6.9551,-6.9579,-6.9625,-6.9645,-6.972,-6.9761,-6.9728,-6.9773,-6.9816,-6.988,-6.9949,-7.0002,-7.0124,-7.012,-7.018,-7.0156,-7.0275,-7.0164,-7.0173,-7.0156,-7.0151,-7.0158,-7.0296,-7.03,-7.0303,-7.0305,0,-6.9748,-6.9737,-6.9801,-6.9862,-6.9914,-6.996,-7.0,-7.0041,-7.0009,-7.0063,-7.0139,-7.0181,-7.0262,-7.0331,-7.0385,-7.0397,-7.0346,-7.034,-7.0367,-7.038,-7.0385,-7.0382,-7.0024,-7.0332,-7.033,-7.0328,-7.0326,-7.0325,-6.9955,-7.0027,-7.0058,-7.013,-7.0157,-7.0196,-7.0262,-7.0263,-7.0326,-7.0392,-7.0367,-7.0454,-7.0481,-7.0549,-7.0569,-7.0635,-7.0589,-7.0628,-7.0637,-7.0647,-7.066,-7.0375,-7.0644,-7.0643,-7.0643,-7.0642,-7.0641,0,-7.0233,-7.0249,-7.0317,-7.0376,-7.0432,-7.0381,-7.0422,-7.0472,-7.055,-7.0581,-7.0635,-7.0721,-7.0787,-7.0789,-7.085,-7.0902,-7.088,-7.0919,-7.0914,-7.0918,-7.0698,-7.0669,-7.0936,-7.0936,-7.0936,-7.0936,-7.0936,-7.0936,-7.0385,-7.0503,-7.0495,-7.0625,-7.064,-7.0726,-7.0754,-7.0788,-7.0813,-7.0913,-7.0968,-7.0969,-7.0988,-7.1049,-7.1107,-7.1105,-7.113,-7.1178,-7.1168,-7.0962,-7.0933,-7.0905,-7.0877,-7.1184,-7.1184,-7.1381,-7.1383,-7.1385]}]]